Key West, FL

9:41 PM EST on February 25, 2017 (GMT -0500)
Key West International

Weather History for KEYW - October, 2011

Change the Weather History Date:

Monday, October 31, 2011

  Actual Average Record
Temperature  
Mean Temperature 79 °F 78 °F  
Max Temperature 83 °F 82 °F 88 °F (1951)
Min Temperature 75 °F 74 °F 62 °F (1953)
Degree Days  
Heating Degree Days 0 0  
Month to date heating degree days 0 0  
Since 1 July heating degree days 0 0  
Cooling Degree Days 14 13  
Month to date cooling degree days 452 473  
Year to date cooling degree days 4513 4208  
Growing Degree Days 28 (Base 50)    
Moisture  
Dew Point 75 °F    
Average Humidity 88    
Maximum Humidity 97    
Minimum Humidity 79    
Precipitation  
Precipitation 0.02 in 0.10 in 2.15 in (1912)
Month to date precipitation 17.14 4.93  
Year to date precipitation 42.10 35.31  
Snow  
Snow 0.00 in - - ()
Month to date snowfall 0.0  
Since 1 July snowfall 0.0  
Since 1 September snowfall 0.0  
Snow Depth 0.00 in    
Sea Level Pressure  
Sea Level Pressure 29.95 in    
Wind  
Wind Speed 10 mph (SE)    
Max Wind Speed 18 mph    
Max Gust Speed 25 mph    
Visibility 10 miles    
Events Rain    
T = Trace of Precipitation, MM = Missing Value Source: NWS Daily Summary

Daily Weather History Graph

Daily Weather History Graph

Search for Another Location

Airport or City:

Trip Planner

Search our weather history database for the weather conditions in past years. The results will help you decide how hot, cold, wet, or windy it might be!

Date:

Astronomy

Oct. 31, 2011 Rise Set
Actual Time 7:33 AM EDT 6:47 PM EDT
Civil Twilight 7:09 AM EDT 7:11 PM EDT
Nautical Twilight 6:42 AM EDT 7:38 PM EDT
Astronomical Twilight 6:16 AM EDT 8:04 PM EDT
Moon 12:26 PM EDT (10/31) 11:33 PM EDT (10/31)
Length of Visible Light 12h 01m
Length of Day
11h 14m
Waxing Crescent, 29% of the Moon is Illuminated
Oct 31
Waxing Crescent
Nov 2
First Quarter
Nov 10
Full
Nov 18
Last Quarter
Nov 25
New

Hourly Weather History & Observations

Time (EDT) Temp. Heat Index Dew Point Humidity Pressure Visibility Wind Dir Wind Speed Gust Speed Precip Events Conditions
12:53 AM 78.1 °F - 75.9 °F 93% 29.97 in 10.0 mi East 3.5 mph - N/A   Scattered Clouds
1:28 AM 78.8 °F - 75.2 °F 89% 29.96 in 10.0 mi East 6.9 mph - 0.01 in   Overcast
1:51 AM 78.8 °F - 75.2 °F 89% 29.96 in 10.0 mi SSE 5.8 mph - 0.01 in   Overcast
1:53 AM 78.1 °F - 75.9 °F 93% 29.96 in 10.0 mi SE 3.5 mph - 0.01 in   Overcast
2:34 AM 78.8 °F - 75.2 °F 89% 29.96 in 10.0 mi Calm Calm - N/A   Overcast
2:46 AM 78.8 °F - 75.2 °F 89% 29.96 in 10.0 mi East 4.6 mph - N/A   Overcast
2:53 AM 78.1 °F - 75.9 °F 93% 29.96 in 10.0 mi East 5.8 mph - N/A   Overcast
3:26 AM 77.0 °F - 75.2 °F 94% 29.95 in 10.0 mi SE 13.8 mph 17.3 mph 0.00 in Rain Light Rain
3:41 AM 77.0 °F - 73.4 °F 89% 29.95 in 10.0 mi SE 15.0 mph - 0.01 in Rain Light Rain
3:53 AM 77.0 °F - 73.9 °F 90% 29.94 in 10.0 mi SE 12.7 mph - 0.01 in   Overcast
4:15 AM 77.0 °F - 73.4 °F 89% 29.94 in 10.0 mi ESE 12.7 mph - N/A   Overcast
4:41 AM 77.0 °F - 75.2 °F 94% 29.94 in 10.0 mi ESE 10.4 mph - N/A   Mostly Cloudy
4:53 AM 77.0 °F - 75.0 °F 94% 29.94 in 10.0 mi SE 11.5 mph - N/A   Partly Cloudy
5:53 AM 78.1 °F - 75.0 °F 90% 29.93 in 10.0 mi SE 10.4 mph - N/A   Clear
6:53 AM 78.1 °F - 75.0 °F 90% 29.93 in 10.0 mi SSE 9.2 mph - N/A   Partly Cloudy
7:53 AM 78.1 °F - 75.0 °F 90% 29.95 in 10.0 mi South 6.9 mph - N/A   Clear
8:53 AM 79.0 °F - 75.9 °F 90% 29.98 in 10.0 mi South 3.5 mph - N/A   Overcast
9:53 AM 79.0 °F - 77.0 °F 94% 29.98 in 10.0 mi SSW 4.6 mph - N/A   Mostly Cloudy
10:53 AM 81.0 °F 87.9 °F 77.0 °F 88% 29.99 in 10.0 mi SW 5.8 mph - N/A   Mostly Cloudy
11:53 AM 82.0 °F 89.4 °F 75.9 °F 82% 29.97 in 10.0 mi SW 10.4 mph - N/A   Clear
12:53 PM 82.0 °F 90.2 °F 77.0 °F 85% 29.94 in 10.0 mi SSW 12.7 mph - N/A   Clear
1:53 PM 82.0 °F 90.2 °F 77.0 °F 85% 29.93 in 10.0 mi SSW 10.4 mph - N/A   Clear
2:53 PM 82.0 °F 89.4 °F 75.9 °F 82% 29.92 in 10.0 mi West 11.5 mph - N/A   Mostly Cloudy
3:49 PM 82.4 °F 89.5 °F 75.2 °F 79% 29.91 in 10.0 mi West 9.2 mph - N/A   Overcast
3:53 PM 82.0 °F 89.4 °F 75.9 °F 82% 29.91 in 10.0 mi West 11.5 mph - N/A   Overcast
4:03 PM 82.4 °F 88.2 °F 73.4 °F 74% 29.91 in 10.0 mi West 10.4 mph 19.6 mph N/A   Overcast
4:53 PM 81.0 °F 86.7 °F 75.0 °F 82% 29.92 in 10.0 mi NW 9.2 mph - N/A   Partly Cloudy
5:53 PM 80.1 °F 85.4 °F 75.9 °F 87% 29.93 in 10.0 mi NW 10.4 mph - N/A   Clear
6:53 PM 80.1 °F 84.5 °F 73.9 °F 81% 29.94 in 10.0 mi NNW 9.2 mph - N/A   Clear
7:53 PM 78.1 °F - 73.9 °F 87% 29.96 in 10.0 mi North 13.8 mph 19.6 mph N/A   Mostly Cloudy
8:53 PM 77.0 °F - 73.0 °F 88% 29.97 in 10.0 mi NNE 12.7 mph 21.9 mph N/A   Mostly Cloudy
9:08 PM 77.0 °F - 71.6 °F 83% 29.98 in 10.0 mi NNE 13.8 mph 20.7 mph N/A   Scattered Clouds
9:53 PM 77.0 °F - 71.6 °F 83% 29.99 in 10.0 mi NE 12.7 mph 17.3 mph N/A   Clear
10:40 PM 75.2 °F - 71.6 °F 89% 30.01 in 10.0 mi NNE 11.5 mph 19.6 mph N/A   Mostly Cloudy
10:53 PM 75.9 °F - 72.0 °F 87% 30.01 in 10.0 mi NNE 13.8 mph - N/A   Mostly Cloudy
11:53 PM 75.0 °F - 70.0 °F 84% 30.01 in 10.0 mi NNE 16.1 mph 20.7 mph N/A   Mostly Cloudy